Location: Newark
(20.0000°S, 47.0000°E)
Time: 18:11:34
(UTC+00:00)

Envisat - Pass Details

Date: 18 June 2019
Orbit: 764 x 766 km, 98.1° (Epoch: 20 August)

Event Time Altitude Azimuth Distance (km) Brightness Sun altitude
Exits shadow 17:17:46 10° 234° (SW) 2,342 5.9 -40.1°
Reaches altitude 10° 17:18:07 10° 238° (WSW) 2,309 5.9 -40.2°
Maximum altitude 17:19:09 11° 250° (WSW) 2,264 5.9 -40.4°
Drops below altitude 10° 17:20:11 10° 262° (W) 2,304 6.1 -40.7°
Sets 17:24:39 0° 299° (WNW) 3,220 7.0 -41.7°
